Погода в Степурине

Россия / Тверская область     56°23′30″N   35°15′47″E
темп.,
°C
ветер,
м/с
пор.,
м/с
влажн.,
%
обл.,
%
осадки,
мм/ч
давл.,
гПа
погр.,
м
13 апреля, вт
вт1300:00+8вюв2792100 0.0 1025163
03:00+7вюв2797100 0.0 1024164
06:00+7юв3696100 0.0 1023121
09:00+11ююв3778100 0.0 1023309
12:00+17ю5854100 0.0 1022825
15:00+20ю4746100 0.0 10211627
18:00+17ююв385617 0.0 1020267
21:00+12ююв3107484 0.0 1020187
14 апреля, ср
ср1400:00+11ююв3127214 0.0 1020236
03:00+9ююв268091 0.0 1019128
06:00+9ююв3978100 0.0 1019202
09:00+13ю4116899 0.0 1018557
12:00+17ю475694 0.0 10181130
15:00+17ююз465292 0.8 10171282
18:00+16з1167100 1.0 101616
21:00+13ссв1175100 1.3 101712
15 апреля, чт
чт1500:00+10св228175 0.0 101731
03:00+9св228199 0.0 101723
06:00+8св2383100 0.0 101853
09:00+11св3569100 0.0 1018296
12:00+15св4553100 0.0 1018778
15:00+16св5649100 0.0 10181212
18:00+13св5968100 0.0 1018717
21:00
16 апреля, пт
пт1600:00+7св41188100 0.0 1021472
03:00+6св51290100 0.0 1021458
06:00+5св51291100 0.0 1021448
09:00+7св5108293 0.0 1022532
12:00+11всв686591 0.0 1022882
15:00+13св6857100 0.0 10221178
18:00+12св5961100 0.0 10221122
21:00+7св513565 0.4 1026538
17 апреля, сб
сб1700:00+6св513627 0.0 1026546
03:00+4св412715 0.0 1026411
06:00+3св412775 0.0 1028392
09:00+7всв6105750 0.0 1028686
12:00+10всв684289 0.0 10291286
15:00+12св68375 0.0 10291536
18:00+11св58440 0.0 10291389
21:00+7св411633 0.0 1031452